CW9461 Weather Reports


Display with metric or nautical units.
time (UTC)temp
F
wind
direction
speed
MPH
gust
MPH
rain 1hr
in
rain 24hr
in
rain mn
in
humidity
%
barometer
mb
20260502213605 65 135 3.0 14.0 0.00 0.00 0.00 63 1003.0
20260502213106 65 123 3.0 9.0 0.00 0.00 0.00 63 1003.2
20260502212604 65 158 2.0 10.0 0.00 0.00 0.00 64 1003.3
20260502212105 65 156 2.0 8.0 0.00 0.00 0.00 64 1003.4
20260502211608 65 127 5.0 10.0 0.00 0.00 0.00 64 1003.4
20260502211105 65 128 3.0 8.0 0.00 0.00 0.00 65 1003.4
20260502210605 65 204 3.0 9.0 0.00 0.00 0.00 66 1003.4
20260502210105 64 170 3.0 10.0 0.00 0.00 0.00 66 1003.4
20260502205605 64 194 3.0 6.0 0.00 0.00 0.00 66 1003.5
20260502205104 64 163 3.0 8.0 0.00 0.00 0.00 67 1003.5
20260502204605 64 143 3.0 8.0 0.00 0.00 0.00 67 1003.7
20260502204105 64 147 3.0 7.0 0.00 0.00 0.00 66 1003.9
20260502203604 64 133 5.0 13.0 0.00 0.00 0.00 66 1003.7
20260502203105 64 128 4.0 9.0 0.00 0.00 0.00 67 1003.7
20260502202105 63 187 3.0 8.0 0.00 0.00 0.00 68 1004.1
20260502201604 63 181 3.0 12.0 0.00 0.00 0.00 68 1004.1
20260502201106 63 142 5.0 10.0 0.00 0.00 0.00 69 1004.1
20260502200605 63 137 3.0 12.0 0.00 0.00 0.00 69 1004.1
20260502200105 63 126 3.0 9.0 0.00 0.00 0.00 69 1004.1
20260502195605 63 154 3.0 8.0 0.00 0.00 0.00 70 1004.1
20260502195106 63 154 3.0 10.0 0.00 0.00 0.00 70 1004.2
20260502194605 63 192 2.0 9.0 0.00 0.00 0.00 70 1004.1
20260502194106 63 158 3.0 9.0 0.00 0.00 0.00 71 1004.1
20260502193605 63 125 4.0 7.0 0.00 0.00 0.00 71 1004.2
20260502192605 63 155 2.0 12.0 0.00 0.00 0.00 72 1004.2
20260502192105 62 236 2.0 8.0 0.00 0.00 0.00 72 1004.1
20260502190605 61 153 3.0 8.0 0.00 0.00 0.00 73 1004.4
20260502185605 61 197 3.0 7.0 0.00 0.00 0.00 73 1004.4
20260502185104 61 155 3.0 8.0 0.00 0.00 0.00 74 1004.4
20260502184604 61 168 2.0 8.0 0.00 0.00 0.00 74 1004.4
20260502184105 61 120 2.0 8.0 0.00 0.00 0.00 75 1004.4
20260502183605 61 213 2.0 8.0 0.00 0.00 0.00 75 1004.4
20260502183105 61 139 3.0 7.0 0.00 0.00 0.00 76 1004.4
20260502182104 61 210 3.0 9.0 0.00 0.00 0.00 76 1004.2
20260502181604 60 300 2.0 6.0 0.00 0.00 0.00 76 1004.1
20260502181104 60 235 3.0 10.0 0.00 0.00 0.00 77 1004.1
20260502180605 60 236 2.0 9.0 0.00 0.00 0.00 77 1004.2
20260502180105 60 207 3.0 9.0 0.00 0.00 0.00 77 1004.1
20260502170106 57 141 2.0 9.0 0.00 0.00 0.00 83 1004.1
20260502164104 57 141 3.0 10.0 0.00 0.00 0.00 83 1004.2
20260502163604 57 137 3.0 6.0 0.00 0.00 0.00 84 1004.4
20260502163106 57 124 2.0 8.0 0.00 0.00 0.00 84 1004.1
20260502162604 57 171 3.0 7.0 0.00 0.00 0.00 84 1004.1
20260502162105 56 187 2.0 7.0 0.00 0.00 0.00 84 1004.1
20260502161604 57 151 2.0 8.0 0.00 0.00 0.00 84 1004.1
20260502160605 57 154 3.0 8.0 0.00 0.00 0.00 84 1003.7
20260502160105 57 136 3.0 6.0 0.00 0.00 0.00 83 1003.7
20260502152104 56 140 2.0 7.0 0.00 0.00 0.00 83 1003.4
20260502151604 56 163 3.0 7.0 0.00 0.00 0.00 83 1003.7
20260502151105 56 139 3.0 7.0 0.00 0.00 0.00 84 1003.4
20260502150605 56 173 2.0 6.0 0.00 0.00 0.00 84 1003.7
20260502150105 56 157 3.0 6.0 0.00 0.00 0.00 84 1003.4
20260502140104 55 138 2.0 8.0 0.00 0.00 0.00 86 1003.0
20260502130605 54 136 3.0 9.0 0.00 0.00 0.00 87 1002.5
20260502130105 54 144 3.0 7.0 0.00 0.00 0.00 87 1002.7
20260502123605 54 162 2.0 5.0 0.00 0.00 0.00 87 1002.6
20260502123104 54 174 3.0 6.0 0.00 0.00 0.00 88 1002.4
20260502122605 54 150 2.0 5.0 0.00 0.00 0.00 88 1002.4
20260502122104 54 155 3.0 7.0 0.00 0.00 0.00 88 1002.4
20260502121104 54 140 2.0 6.0 0.00 0.00 0.00 88 1002.4
20260502120604 54 157 3.0 7.0 0.00 0.00 0.00 87 1002.4
20260502120104 54 154 1.0 5.0 0.00 0.00 0.00 87 1002.4
20260502115604 54 134 2.0 5.0 0.00 0.00 0.00 87 1002.4
20260502115105 54 133 2.0 5.0 0.00 0.00 0.00 87 1002.4
20260502114604 54 161 2.0 7.0 0.00 0.00 0.00 87 1002.4
20260502114105 54 158 2.0 8.0 0.00 0.00 0.00 87 1002.4
20260502113604 54 146 4.0 7.0 0.00 0.00 0.00 87 1002.4
20260502113105 54 155 3.0 9.0 0.00 0.00 0.00 87 1002.4
20260502112605 54 135 2.0 7.0 0.00 0.00 0.00 87 1002.4
20260502112105 54 122 3.0 7.0 0.00 0.00 0.00 87 1002.4
20260502111604 54 143 4.0 6.0 0.00 0.00 0.00 87 1002.4
20260502111104 54 145 3.0 7.0 0.00 0.00 0.00 87 1002.4
20260502110604 54 140 3.0 6.0 0.00 0.00 0.00 87 1002.4
20260502105104 54 133 2.0 7.0 0.00 0.00 0.00 87 1002.7
20260502104604 54 141 3.0 6.0 0.00 0.00 0.00 87 1002.4
20260502104104 54 137 3.0 6.0 0.00 0.00 0.00 87 1002.5
20260502103604 54 141 3.0 6.0 0.00 0.00 0.00 87 1002.7
20260502103104 54 150 3.0 9.0 0.00 0.00 0.00 87 1002.7
20260502102604 54 139 3.0 7.0 0.00 0.00 0.00 87 1002.7
20260502102104 54 123 3.0 7.0 0.00 0.00 0.00 87 1002.6
20260502101604 54 135 4.0 7.0 0.00 0.00 0.00 87 1002.7
20260502101104 54 152 4.0 8.0 0.00 0.00 0.00 87 1002.7
20260502100604 54 126 5.0 9.0 0.00 0.00 0.00 87 1002.7
20260502100104 54 123 4.0 7.0 0.00 0.00 0.00 87 1002.7
20260502091104 54 126 4.0 8.0 0.00 0.00 0.00 88 1003.2
20260502090604 54 145 4.0 9.0 0.00 0.00 0.00 88 1003.2
20260502090105 54 145 3.0 6.0 0.00 0.00 0.00 88 1003.4
20260502080105 54 151 5.0 8.0 0.00 0.00 0.00 86 1003.4
20260502071107 54 148 3.0 7.0 0.00 0.00 0.00 85 1003.4
20260502070605 54 155 2.0 7.0 0.00 0.00 0.00 85 1003.4
20260502065604 55 136 2.0 5.0 0.00 0.00 0.00 84 1003.4
20260502064604 55 135 3.0 9.0 0.00 0.00 0.00 83 1003.4
20260502064105 55 122 2.0 5.0 0.00 0.00 0.00 83 1003.4
20260502063604 55 140 3.0 6.0 0.00 0.00 0.00 83 1003.4
20260502063103 55 136 3.0 5.0 0.00 0.00 0.00 83 1003.4
20260502062604 55 130 2.0 6.0 0.00 0.00 0.00 83 1003.4
20260502062104 55 134 2.0 8.0 0.00 0.00 0.00 82 1003.6
20260502061604 55 133 2.0 5.0 0.00 0.00 0.00 82 1003.5
20260502060606 55 148 2.0 6.0 0.00 0.00 0.00 81 1003.5
20260502060105 55 115 3.0 5.0 0.00 0.00 0.00 81 1003.7
20260502055606 56 119 2.0 5.0 0.00 0.00 0.00 80 1003.6
20260502055106 56 139 2.0 8.0 0.00 0.00 0.00 80 1003.7
20260502054607 56 135 1.0 5.0 0.00 0.00 0.00 80 1003.6
20260502054105 56 142 2.0 5.0 0.00 0.00 0.00 80 1003.7
20260502053605 56 154 2.0 5.0 0.00 0.00 0.00 79 1003.6
20260502053105 56 133 2.0 5.0 0.00 0.00 0.00 79 1003.6
20260502052606 56 143 2.0 3.0 0.00 0.00 0.00 78 1003.5
20260502052106 57 138 2.0 3.0 0.00 0.00 0.00 78 1003.6
20260502051605 57 120 2.0 5.0 0.00 0.00 0.00 77 1003.5
20260502050605 57 124 2.0 7.0 0.00 0.00 0.00 76 1003.5
20260502050105 58 140 2.0 5.0 0.00 0.00 0.00 76 1003.6
20260502045605 58 147 1.0 2.0 0.00 0.00 0.00 75 1003.7
20260502045105 58 159 2.0 5.0 0.00 0.00 0.00 75 1003.7
20260502044106 58 137 1.0 3.0 0.00 0.00 0.00 74 1003.4
20260502043605 59 144 1.0 5.0 0.00 0.00 0.00 73 1003.4
20260502043106 59 143 1.0 3.0 0.00 0.00 0.00 73 1003.4
20260502042606 59 140 1.0 2.0 0.00 0.00 0.00 73 1003.3
20260502042106 59 137 1.0 3.0 0.00 0.00 0.00 72 1003.1
20260502041606 60 157 2.0 3.0 0.00 0.00 0.00 72 1003.0
20260502041106 60 135 1.0 2.0 0.00 0.00 0.00 72 1003.0
20260502040605 60 135 2.0 2.0 0.00 0.00 0.00 72 1002.9
20260502035605 60 148 1.0 3.0 0.00 0.00 0.00 71 1002.7
20260502035105 60 180 0.0 0.0 0.00 0.00 0.00 70 1002.7
20260502034605 61 180 0.0 0.0 0.00 0.00 0.00 70 1002.7
20260502033605 61 115 0.0 2.0 0.00 0.00 0.00 68 1002.7
20260502033105 62 292 0.0 0.0 0.00 0.00 0.00 68 1002.4
20260502032607 62 292 0.0 1.0 0.00 0.00 0.00 67 1002.4
20260502032107 63 292 0.0 1.0 0.00 0.00 0.00 67 1002.4
20260502031606 63 292 0.0 2.0 0.00 0.00 0.00 66 1002.4
20260502031105 64 267 1.0 1.0 0.00 0.00 0.00 65 1002.4
20260502030605 65 216 0.0 0.0 0.00 0.00 0.00 64 1002.4
20260502030106 65 157 1.0 2.0 0.00 0.00 0.00 64 1002.4
20260502025606 66 157 0.0 1.0 0.00 0.00 0.00 63 1002.0
20260502025106 66 157 0.0 2.0 0.00 0.00 0.00 63 1002.3
20260502024105 67 157 1.0 2.0 0.00 0.00 0.00 62 1002.4
20260502023605 67 135 1.0 2.0 0.00 0.00 0.00 62 1002.4
20260502023106 68 135 1.0 2.0 0.00 0.00 0.00 62 1002.0
20260502022606 68 161 0.0 2.0 0.00 0.00 0.00 63 1002.0
20260502022105 68 247 1.0 5.0 0.00 0.00 0.00 62 1002.0
20260502021606 69 240 3.0 6.0 0.00 0.00 0.00 62 1002.0
20260502021105 69 265 2.0 5.0 0.00 0.00 0.00 62 1002.0
20260502020605 70 257 2.0 5.0 0.00 0.00 0.00 61 1001.8
20260502020105 71 250 2.0 3.0 0.00 0.00 0.00 59 1001.7
20260502015605 71 284 3.0 6.0 0.00 0.00 0.00 58 1001.9
20260502015106 71 269 2.0 3.0 0.00 0.00 0.00 58 1001.7
20260502014606 71 247 2.0 3.0 0.00 0.00 0.00 59 1001.7
20260502014105 71 248 3.0 6.0 0.00 0.00 0.00 60 1001.7
20260502013606 71 258 2.0 6.0 0.00 0.00 0.00 60 1001.7
20260502013104 71 267 3.0 6.0 0.00 0.00 0.00 60 1001.7
20260502012605 71 273 3.0 6.0 0.00 0.00 0.00 60 1001.7
20260502011605 73 286 3.0 6.0 0.00 0.00 0.00 58 1001.7
20260502011106 73 266 3.0 7.0 0.00 0.00 0.00 58 1001.7
20260502010605 73 251 4.0 8.0 0.00 0.00 0.00 58 1001.7
20260502010105 73 255 5.0 8.0 0.00 0.00 0.00 57 1001.7
20260502005605 74 251 3.0 6.0 0.00 0.00 0.00 57 1001.7
20260502005105 74 249 3.0 6.0 0.00 0.00 0.00 57 1001.7
20260502004605 74 273 2.0 6.0 0.00 0.00 0.00 58 1001.7
20260502004105 74 259 3.0 14.0 0.00 0.00 0.00 57 1001.7
20260502003606 74 239 5.0 8.0 0.00 0.00 0.00 57 1001.7
20260502003105 74 281 4.0 6.0 0.00 0.00 0.00 57 1001.7
20260502002605 75 252 7.0 10.0 0.00 0.00 0.00 57 1001.7
20260502002104 75 271 3.0 8.0 0.00 0.00 0.00 57 1001.7
20260502001606 75 243 5.0 9.0 0.00 0.00 0.00 56 1001.7
20260502001105 75 270 3.0 7.0 0.00 0.00 0.00 56 1001.7
20260502000605 75 269 3.0 7.0 0.00 0.00 0.00 56 1001.7
20260502000105 74 260 3.0 10.0 0.00 0.00 0.00 57 1001.9
20260501235605 74 257 5.0 8.0 0.00 0.00 0.00 56 1001.7
20260501235106 74 272 3.0 6.0 0.00 0.00 0.00 56 1001.7
20260501234604 74 256 3.0 8.0 0.00 0.00 0.00 56 1001.9
20260501234105 74 272 5.0 10.0 0.00 0.00 0.00 55 1002.0
20260501233605 75 284 5.0 8.0 0.00 0.00 0.00 55 1002.0
20260501233105 75 240 3.0 8.0 0.00 0.00 0.00 55 1002.0
20260501232605 75 253 4.0 6.0 0.00 0.00 0.00 55 1002.0
20260501232104 75 273 3.0 6.0 0.00 0.00 0.00 54 1002.0
20260501231605 75 260 3.0 7.0 0.00 0.00 0.00 54 1002.3
20260501231106 75 247 3.0 7.0 0.00 0.00 0.00 53 1002.3
20260501230604 75 258 3.0 6.0 0.00 0.00 0.00 53 1002.4
20260501230105 75 247 3.0 8.0 0.00 0.00 0.00 53 1002.3
20260501225104 75 265 3.0 9.0 0.00 0.00 0.00 54 1002.4
20260501224605 74 235 5.0 8.0 0.00 0.00 0.00 55 1002.4
20260501223605 74 241 4.0 8.0 0.00 0.00 0.00 56 1002.8
20260501223105 73 251 5.0 7.0 0.00 0.00 0.00 56 1003.0
20260501222605 73 263 4.0 10.0 0.00 0.00 0.00 56 1003.0
20260501222106 73 232 3.0 12.0 0.00 0.00 0.00 55 1003.0
20260501221604 73 252 4.0 8.0 0.00 0.00 0.00 55 1003.1
20260501221105 74 271 4.0 12.0 0.00 0.00 0.00 54 1003.4
20260501220605 74 248 4.0 9.0 0.00 0.00 0.00 55 1003.3
20260501220105 73 245 4.0 10.0 0.00 0.00 0.00 55 1003.4
20260501215605 73 264 5.0 8.0 0.00 0.00 0.00 55 1003.4
20260501215104 73 266 3.0 8.0 0.00 0.00 0.00 55 1003.4
20260501214604 73 260 5.0 12.0 0.00 0.00 0.00 55 1003.5
20260501214106 73 242 4.0 10.0 0.00 0.00 0.00 55 1003.4